TimeCDT,TemperatureF,Dew PointF,Humidity,Sea Level PressureIn,VisibilityMPH,Wind Direction,Wind SpeedMPH,Gust SpeedMPH,PrecipitationIn,Events,Conditions,WindDirDegrees,DateUTC
12:30 AM,82.4,77.0,84,29.90,10.0,SSE,13.8,-,N/A,,Mostly Cloudy,150,2013-08-08 05:30:00
12:56 AM,82.9,77.0,82,29.89,10.0,SSE,11.5,-,N/A,,Mostly Cloudy,150,2013-08-08 05:56:00
1:56 AM,82.9,77.0,82,29.88,10.0,SSE,12.7,-,N/A,,Mostly Cloudy,150,2013-08-08 06:56:00
2:56 AM,82.9,77.0,82,29.88,10.0,SSE,12.7,-,N/A,,Overcast,160,2013-08-08 07:56:00
3:24 AM,82.4,77.0,84,29.88,10.0,SSE,16.1,-,N/A,,Overcast,160,2013-08-08 08:24:00
3:56 AM,82.9,75.9,79,29.86,10.0,SSE,13.8,-,N/A,,Mostly Cloudy,160,2013-08-08 08:56:00
4:56 AM,82.0,75.9,82,29.85,10.0,South,11.5,-,N/A,,Clear,170,2013-08-08 09:56:00
5:56 AM,81.0,75.9,85,29.84,10.0,South,10.4,-,N/A,,Partly Cloudy,170,2013-08-08 10:56:00
6:56 AM,80.1,77.0,90,29.85,10.0,SSE,9.2,-,N/A,,Partly Cloudy,160,2013-08-08 11:56:00
7:56 AM,81.0,77.0,88,29.85,9.0,South,10.4,-,N/A,,Partly Cloudy,170,2013-08-08 12:56:00
8:56 AM,84.9,77.0,77,29.87,10.0,South,16.1,-,N/A,,Partly Cloudy,170,2013-08-08 13:56:00
9:56 AM,90.0,75.0,61,29.88,10.0,SSE,15.0,21.9,N/A,,Scattered Clouds,160,2013-08-08 14:56:00
10:56 AM,93.9,73.9,52,29.88,10.0,SSE,15.0,-,N/A,,Partly Cloudy,160,2013-08-08 15:56:00
11:56 AM,97.0,72.0,44,29.88,10.0,SSE,16.1,20.7,N/A,,Partly Cloudy,160,2013-08-08 16:56:00
12:56 PM,99.0,70.0,39,29.86,10.0,SSW,9.2,23.0,N/A,,Clear,200,2013-08-08 17:56:00
1:56 PM,102.0,70.0,35,29.84,10.0,SSE,18.4,26.5,N/A,,Clear,150,2013-08-08 18:56:00
2:56 PM,100.0,75.0,45,29.83,10.0,ESE,17.3,25.3,N/A,,Partly Cloudy,110,2013-08-08 19:56:00
3:56 PM,98.1,75.9,49,29.82,10.0,SE,18.4,24.2,N/A,,Partly Cloudy,140,2013-08-08 20:56:00
4:56 PM,96.1,75.0,51,29.80,10.0,SE,19.6,26.5,N/A,,Partly Cloudy,130,2013-08-08 21:56:00
5:56 PM,93.0,75.0,56,29.80,10.0,SE,20.7,29.9,N/A,,Partly Cloudy,130,2013-08-08 22:56:00
6:56 PM,90.0,73.9,59,29.80,10.0,SE,18.4,28.8,N/A,,Clear,140,2013-08-08 23:56:00
7:56 PM,86.0,75.9,72,29.81,10.0,SE,21.9,27.6,N/A,,Clear,130,2013-08-09 00:56:00
8:56 PM,84.0,75.9,76,29.83,10.0,SE,20.7,28.8,N/A,,Clear,140,2013-08-09 01:56:00
9:56 PM,82.9,77.0,82,29.85,10.0,SE,16.1,-,N/A,,Partly Cloudy,140,2013-08-09 02:56:00
10:56 PM,82.9,75.9,79,29.87,10.0,SE,12.7,20.7,N/A,,Partly Cloudy,140,2013-08-09 03:56:00
11:56 PM,82.0,77.0,85,29.89,10.0,SSE,8.1,-,N/A,,Scattered Clouds,150,2013-08-09 04:56:00